Tracking 17842 objects as of 29-August-2016
HD Live streaming from Space Station
objects crossing your sky now

OXP 1

Track OXP 1 now!
10-day predictions
OXP 1 is classified as:


NORAD ID: 22489
Int'l Code: 1993-009A
Perigee: 720.5 km
Apogee: 779.1 km
Inclination: 25.0 °
Period: 99.7 minutes
Semi major axis: 7120 km
RCS: 1.9581 m2 (large)
Launch date: February 9, 1993
Source: United States (US)
Launch site: AIR FORCE EASTERN TEST RANGE (AFETR)
Your satellite tracking list
Your tracking list is empty





NASA's NSSDC Master Catalog

Two Line Element Set (TLE):
1 22489U 93009A   16241.62715531  .00000263  00000-0  22287-4 0  9996
2 22489  24.9651 311.3024 0041138 126.2928 234.1388 14.44808300243173
Source of the keplerian elements: AFSPC

N2YO: 758